CSS (TIANHE)

Last updated on Sat Feb 07 2026 00:02:11 GMT+0000 (Coordinated Universal Time)

1 48274U 21035A 26037.47343961 .00022506 00000+0 28124-3 0 9995 2 48274 41.4680 37.9008 0005396 13.3696 346.7284 15.59287012272733
UTC large
Height (km)
Speed (km/s)
/
Latitude / Longitude
Inclination (degrees)
Orbital Period (minutes)
Azimuth
Elevation
Range (km)
Doppler Factor

Next 0 passes for location: London (51.5072 / 0.1276)

Sorry there are no passes over London.